Погода Викулово

Погода Викулово : погода сейчас, прогноз погоды и архив. Всё, что Вы хотите узнать о погоде Викулово!

Поиск расширенной информации на нашем сайте:

Другие новости

Новости СМИ2

Главная страница сайта

Новости сайта

03.07.2017

Напоминаем, что на нашем специализированном сайте Метеоцентр.Азия вы можете получить высокодетализированные автоматические прогнозы погоды по пунктам России, СНГ и мира в авиационном формате (включающие направление и скорость ветра, видимость, явления погоды, количество и форму облачности, нижнюю и верхнюю границу облачности).


Погода Викулово - сегодня

Время (UTC), дата Ветер
(°,м/с) 
Видим.   Явления Облачность Т
(°С)
Тd
(°С)
f(%) Тe
(°С)
Pmin
(гПа)
dP
(гПа)
Po
(мм)
O2
(г/м3)
Тmin Tmax R s Состояние
почвы
00 21.09.17 310 (СЗ) 10 км    10/10 600 м 
[Sc]
+8.9 +5.3 78 +8  1012  0.7  752  293           
03 21.09.17 340 (С) 20000 м    10/10 600 м 
[Sc]
+7.9 +5.7 86 +7  1013.7  1.7  753  294  +7.7         
06 21.09.17 350 (С) 20000 м    10/10 600 м 
[Ns]
+8.1 +4.5 78 +7  1015.2  1.5  754  294  +7.7         
09 21.09.17 350 (С) 20000 м    10/10 600 м 
[Sc]
+8.3 +3.6 72 +7  1017.1  1.9  756  295           
12 21.09.17 360 (С) 20000 м    10/10 600 м 
[Sc]
+8.5 +3.8 72 +8  1019.1  757  295           
15 21.09.17 330 (СЗ) 20000 м    10/10 600 м 
[Sc]
+7.3 +4.9 85 +7  1020.4  1.3  758  297    +9       
18 21.09.17 340 (С) 20000 м    4/4 600 м 
[Sc]
+5.8 +4.1 89 +5  1021.3  0.9  759  299           
21 21.09.17 330 (СЗ) 20000 м    10/10 600 м 
[Sc]
+5.9 +2.4 78 +6  1021.8  0.4  759  299           
00 22.09.17 300 (СЗ) 20000 м    10/0 средняя 
[As op]
+4.7 +2.7 87 +4  1021.9  0.1  759  300           
03 22.09.17 300 (СЗ) 20000 м    10/0 средняя 
[Ac As]
+5.3 +3.2 86 +4  1021.8  -0.1  759  300  +4.6        влажная 
06 22.09.17 330 (СЗ) 10 км  слаб. дождь  10/10 300 м 
[Frnb]
+6.8 +1.5 69 +5  1021.7  -0.1  759  298           
12 22.09.17 360 (С) 7-12{14}  20000 м  {ливн. осадки, дождь}  10/10 600 м 
[Sc]
+2.8 -4.6 58 -1  1025.5  762  304           
15 22.09.17 320 (СЗ) 3{13}  20000 м    10/10 600 м 
[Sc]
+2.5 -4.5 60 +1  1026.2  0.7  762  305    +7.9  0.7     
18 22.09.17 350 (С) 5{11}  20000 м    10/10 600 м 
[Sc]
+2.5 -3.6 64 1026.6  0.4  763  305           
21 22.09.17 360 (С) 5{10}  20000 м    10/10 600 м 
[Sc]
+0.5 -2.4 81 -2  1027.3  0.5  763  307           
00 23.09.17 330 (СЗ) 20000 м    10/10 600 м 
[Sc]
+1 -4 69 -1  1027.9  0.7  764  307           
03 23.09.17 340 (С) 6{11}  20000 м    10/10 600 м 
[Sc]
+1.2 -6.6 56 -2  1028.5  0.6  764  307  +0.4        влажная 
06 23.09.17 350 (С) 6-10{11}  20000 м    10/10 600 м 
[Sc]
+1.9 -6.4 54 -1  1028.8  0.3  764  307           
09 23.09.17 340 (С) 5{11}  20000 м    10/10 600 м 
[Sc]
+2.1 -6.5 53 -1  1029.5  0.7  765  307           
12 23.09.17 340 (С) 5-10{11}  20000 м    10/10 600 м 
[Sc]
+2 -6.7 52 -1  1030.3  0.8  765  307           
15 23.09.17 340 (С) 3{10}  20000 м    10/10 600 м 
[Sc]
+1.6 -5.9 57 1031  0.7  766  307    +2.1       
18 23.09.17 350 (С) 20000 м    10/10 600 м 
[Sc]
+1.5 -5.7 59 +1  1031.7  0.7  766  308           
21 23.09.17 010 (С) 20000 м    10/10 600 м 
[Sc]
+1.4 -6.1 57 1032.5  0.7  767  308           
00 24.09.17 340 (С) 20000 м    10/10 600 м 
[Sc]
+0.8 -5.9 61 -1  1033.5  768  309           
03 24.09.17 350 (С) 20000 м    10/10 600 м 
[Sc]
+1.1 -5.1 63 1034.8  1.3  769  309  +0.7        влажная 
Время (UTC), дата Ветер
(°,м/с) 
Видим.   Явления Облачность Т
(°С)
Тd
(°С)
f(%) Тe
(°С)
Pmin
(гПа)
dP
(гПа)
Po
(мм)
O2
(г/м3)
Тmin Tmax R s Состояние
почвы

Для получения пояснительной информации подведите курсор к названию столбца.

ПОГОДА Викулово - архив

Всё, что Вы хотите узнать о погоде Викулово - удобно и подробно!

Выберите нужную дату (начиная с 1 января 2015* года) и нажмите кнопку "Найти".
Будут отображены архивные сводки погоды по пункту Викулово, начиная с указанной даты.


Отображать данные в формате CSV (для использования в таблицах Excel)


Внимание! Наш архив погоды предназначен исключительно для личного некоммерческого использования в познавательных целях. Если Вам необходимы официальные справки о состоянии погоды (для производственных, юридических, коммерческих и т.п. целей), обращайтесь в органы Росгидромета.

*Примечание: данная дата относится к архиву по метеостанциям СССР (Россия, СНГ, Балтия).
Архив по метеостанциям Зарубежной Европы и Азии (кроме Китая) хранится 10 дней, по другим регионам земного шара (Китай, Африка, Америка, Австралия, Океания) - 1 день.

Викулово - район местоположения метеостанции


Название, широта, долгота, высота метеостанции:
Викулово 56.8°ш. 70.6°д. 78 м над ур. моря [Российская Федерация]

Дополнительная информация

В oтличие oт бoльшинства пoгoдных сайтoв мы публикуем пoдрoбную метеoинфoрмацию в детальнoм прoфессиoнальнoм фoрмате.

Характеристики температуры и влажнoсти вoздуха измеряются на высoте 2 м в тени вдали oт зданий и деревьев.
Скoрoсть ветра измеряется на высoте 10 м (на урoвне рoста челoвека скoрoсть ветра ниже в 1.5-2 раза). Если метеoстанция нахoдится в гoрoде или в лесу, тo скoрoсть ветра занижена на 2-4 м/с пo сравнению с oткрытым местoм. Скoрoсть ветра над акватoриями крупных рек и oзёр, а также на вершинах хoлмoв на 2-5 м/с выше, чем в oбычных услoвиях.
Атмoсфернoе давление в разных тoчках местнoсти мoжет значительнo oтличаться oт давления на метеoстанции, в зависимoсти oт услoвий рельефа (при пoдъёме на 10 м давление пoнижается примернo на 1 мм рт.ст.).